Weather History for Rome, OR

Change the Weather History Date:

Sunday, January 1, 2006

  Actual Average Record
Temperature  
Mean Temperature 40 °F 28 °F  
Max Temperature 46 °F 37 °F 60 °F (1997)
Min Temperature 32 °F 19 °F -13 °F (1942)
Degree Days  
Heating Degree Days 26 37  
Month to date heating degree days 37  
Since 1 July heating degree days 2784  
Cooling Degree Days 0 0  
Month to date cooling degree days 0  
Year to date cooling degree days 0  
Moisture  
Dew Point 25 °F    
Average Humidity 61    
Maximum Humidity 96    
Minimum Humidity 34    
Precipitation  
Precipitation 0.31 in 0.03 in 0.66 in (1997)
Month to date precipitation 0.03  
Year to date precipitation 0.03  
Sea Level Pressure  
Sea Level Pressure 29.65 in    
Wind  
Wind Speed 12 mph (SSE)    
Max Wind Speed 20 mph    
Max Gust Speed 24 mph    
T = Trace of Precipitation, MM = Missing Value Source: NWS Daily Summary

Daily Weather History Graph

Daily Weather History Graph

Search for Another Location

Airport:

Trip Planner

Search our weather history database for the weather conditions in past years. The results will help you decide how hot, cold, wet, or windy it might be!

Date:

Astronomy

Jan. 01, 2006 Rise Set
Actual Time 7:21 AM PST 4:28 PM PST
Civil Twilight 6:49 AM PST 5:00 PM PST
Nautical Twilight 6:14 AM PST 5:36 PM PST
Astronomical Twilight 5:39 AM PST 6:10 PM PST
Moon 9:10 AM PST (1/1) 6:25 PM PST (1/1)
Length of Visible Light 10h 11m
Length of Day
9h 07m
Waxing Crescent, 4% of the Moon is Illuminated
Jan 1
Waxing Crescent
Jan 6
First Quarter
Jan 14
Full
Jan 22
Last Quarter
Jan 29
New

Hourly Weather History & Observations

Time (PST) Temp. Windchill Dew Point Humidity Pressure Visibility Wind Dir Wind Speed Gust Speed Precip Events Conditions
12:52 AM 37.0 °F 27.4 °F 21.9 °F 54% 29.71 in - SSW 17.3 mph - N/A   Unknown
1:52 AM 36.0 °F 26.7 °F 21.9 °F 57% 29.75 in - SSW 15.0 mph - N/A   Unknown
2:52 AM 36.0 °F 29.0 °F 23.0 °F 59% 29.76 in - SSE 9.2 mph - N/A   Unknown
3:52 AM 35.1 °F 27.9 °F 23.0 °F 61% 29.77 in - South 9.2 mph - N/A   Unknown
4:52 AM 37.0 °F 28.9 °F 23.0 °F 57% 29.77 in - South 12.7 mph - N/A   Unknown
5:52 AM 37.0 °F 27.4 °F 24.1 °F 59% 29.76 in - SSE 17.3 mph 24.2 mph N/A   Unknown
6:52 AM 37.0 °F 29.8 °F 24.1 °F 59% 29.75 in - SSE 10.4 mph - N/A   Unknown
7:52 AM 37.0 °F 30.4 °F 25.0 °F 62% 29.74 in - SE 9.2 mph - N/A   Unknown
8:52 AM 37.9 °F 30.9 °F 24.1 °F 57% 29.71 in - SSE 10.4 mph - N/A   Unknown
9:52 AM 39.9 °F 33.4 °F 24.1 °F 53% 29.71 in - SSE 10.4 mph - N/A   Unknown
10:52 AM 42.1 °F 34.5 °F 21.9 °F 45% 29.68 in - South 15.0 mph - N/A   Unknown
11:52 AM 42.1 °F 33.3 °F 21.0 °F 43% 29.61 in - SSE 19.6 mph - N/A   Unknown
12:52 PM 44.1 °F 38.6 °F 21.0 °F 40% 29.59 in - ESE 10.4 mph - N/A   Unknown
1:52 PM 46.0 °F 39.0 °F 19.0 °F 34% 29.55 in - South 17.3 mph 24.2 mph N/A   Unknown
2:52 PM 46.0 °F 41.0 °F 19.0 °F 34% 29.55 in - South 10.4 mph - N/A   Unknown
3:52 PM 45.0 °F 41.8 °F 21.0 °F 39% 29.58 in - South 5.8 mph - N/A   Unknown
4:52 PM 44.1 °F 40.8 °F 21.9 °F 42% 29.56 in - SSW 5.8 mph - N/A   Unknown
5:52 PM 41.0 °F 36.4 °F 28.0 °F 60% 29.60 in - WNW 6.9 mph - N/A   Unknown
6:52 PM 36.0 °F 29.0 °F 33.1 °F 89% 29.59 in - NW 9.2 mph - 0.03 in   Unknown
7:52 PM 36.0 °F 30.3 °F 33.1 °F 89% 29.58 in - ENE 6.9 mph - 0.02 in   Unknown
8:52 PM 33.1 °F 27.7 °F 30.9 °F 92% 29.60 in - NE 5.8 mph - 0.08 in   Unknown
9:52 PM 33.1 °F 28.7 °F 30.9 °F 92% 29.59 in - SE 4.6 mph - 0.08 in   Unknown
10:52 PM 33.1 °F 30.0 °F 30.9 °F 92% 29.59 in - East 3.5 mph - 0.08 in   Unknown
11:52 PM 32.0 °F 28.7 °F 30.9 °F 96% 29.58 in - SSE 3.5 mph - 0.02 in   Unknown